Location: The Saddle
(36.8333°N, 80.3417°W)
Time: 07:29:14
(UTC-04:00)

Vanguard 2 Rocket - Pass Details

Date: 27 January 2022
Orbit: 553 x 3323 km, 32.9° (Epoch: 23 May)

Event Time Altitude Azimuth Distance (km) Brightness Sun altitude
Exits shadow 00:44:02 15° 84° (E) 5,564 10.8 -71.5°
Drops below altitude 10° 00:46:30 10° 81° (E) 6,104 11.1 -71.4°
Sets 00:51:56 0° 77° (ENE) 7,273 11.6 -71.2°
